CloseHelpProblem

Burley Spudman

07/28/12


PlBibName RepresentingAge Division Interval TimeTime BackTotal Time
11257Bruno GERBERRIVERTON UT USA07 M 45-4900:01:53.798+0:0000:19:42.751
21280Tim CHESLEYPARK CITY UT USA07 M 45-4900:02:16.505+0:22.700:27:10.490
31301Whitney PHILLIPSBOUNTIFUL UT USA07 M 45-4900:02:17.519+0:23.700:23:19.968
41249Paul SLADEMURRAY UT USA07 M 45-4900:02:22.343+0:28.500:20:47.286
51328Doug LENIOPOCATELLO ID USA07 M 45-4900:02:25.547+0:31.700:17:31.084
61263Bart LARSENIDAHO FALLS ID USA07 M 45-4900:02:26.206+0:00.600:22:51.757
71306Adam DEWAALSLC UT USA07 M 45-4900:02:27.505+0:01.900:22:14.439
81302Tracy MOBLEYRIGBY ID USA07 M 45-4900:02:33.951+0:08.400:21:07.462
91233Alan SMILEYPROVO UT USA07 M 45-4900:02:35.203+0:09.600:20:01.3
101242Darin ANDERSONLEHI UT USA07 M 45-4900:02:40.897+0:05.600:22:16.540
111230Thayne PETERSONALPINE UT USA07 M 45-4900:02:42.405+0:07.200:24:31.488
121289Kevin HALVERSONRUPERT ID USA07 M 45-4900:02:43.755+0:08.500:32:18.328
131285Steven ORROCKALPINE UT USA07 M 45-4900:02:50.889+0:15.600:18:47.004
141250Curt EVANSSOUTH JORDAN UT USA07 M 45-4900:02:51.531+0:16.300:31:18.508
151303Matt BRIDGESBUHL ID USA07 M 45-4900:02:54.584+0:19.300:21:39.280
161231Jeff OTTORIVERTON UT USA07 M 45-4900:02:58.729+0:23.500:22:09.629
171266Temp PATTERSONBURLEY ID USA07 M 45-4900:03:01.507+0:26.300:24:01.472
181265Greg ANDERSONSOUTH JORDAN UT USA07 M 45-4900:03:11.092+0:35.800:22:39.132
191287Brad BARLOWFRUITLAND ID USA07 M 45-4900:03:11.619+0:36.400:19:50.688
201312Stuart ROBERTSONVANCOUVER WA USA07 M 45-4900:03:13.322+0:38.100:27:52.177
211247Kleigh HUMPHREYSALT LAKE CITY UT USA07 M 45-4900:03:15.776+0:40.500:19:51.817
221329Perry CRAWFORDTREMONTON UT USA07 M 45-4900:03:16.740+0:41.500:26:50.802
231332Aaron HALLSALT LAKE CITY UT USA07 M 45-4900:03:17.552+0:42.300:47:42.350
241255Daren GEHRINGNORTH LOGAN UT USA07 M 45-4900:03:21.145+0:45.900:24:29.626
251281Brad CHRISTENSENALPINE UT USA07 M 45-4900:03:23.620+0:48.400:23:45.647
261227Glenn WAKEFIELDHEBER CITY UT USA07 M 45-4900:03:34.260+0:59.000:24:54.596
271276David MOXHAMDRAPER UT USA07 M 45-4900:03:38.344+1:03.100:25:38.196
281291Scott DEBERARDNORTH LOGAN UT USA07 M 45-4900:03:40.747+1:05.500:21:31.281
291259Brad BURGESSWEST JORDAN UT USA07 M 45-4900:03:45.327+1:10.100:25:12.014
301293Lonnie HUNTERSOUTH JORDAN UT USA07 M 45-4900:03:45.481+1:10.200:24:20.511
311288William ASHTONSOUTH JORDAN UT USA07 M 45-4900:03:47.806+1:12.600:25:17.772
321241Kris PAINTERRIVERTON UT USA07 M 45-4900:03:48.204+1:13.000:24:30.649
331320David LARSONCENTERVILLE UT USA07 M 45-4900:03:48.747+1:13.500:25:30.749
341277David BLACKBURNEAGLE MTN UT USA07 M 45-4900:03:52.097+1:16.800:22:31.328
351323Sean KUNZLEROGDEN UT USA07 M 45-4900:03:58.152+1:22.900:28:22.389
361248Paul KORTHWEST JORDAN UT USA07 M 45-4900:04:03.270+1:28.000:24:50.248
371297Doug GARRETTMILLVILLE UT USA07 M 45-4900:04:05.886+1:30.600:26:11.591
381237Ron VAN TIENDERENSALT LAKE CITY UT USA07 M 45-4900:04:10.650+1:35.400:26:14.590
391244Shon RINDLISBACHERRIVERTON UT USA07 M 45-4900:04:21.487+1:46.200:28:03.673
401251Michael HOUSLEYSMITHFIELD UT USA07 M 45-4900:04:28.634+1:53.400:24:54.370
411268Daniel SNOWPROVO UT USA07 M 45-4900:04:39.403+2:04.200:28:33.267
421232Frank MENDEZMURRAY UT USA07 M 45-4900:04:40.258+2:05.000:27:03.535
431272Brad CHILTONPOCATELLO ID USA07 M 45-4900:04:41.087+2:05.800:29:34.078
441260Myron VAWDREYDRAPER UT USA07 M 45-4900:04:41.457+2:06.200:30:36.966
451310Lonnie MCMURTREYTHORNTON CO USA07 M 45-4900:04:42.198+2:06.900:32:36.546
461238Shane DAMRONINKOM ID USA07 M 45-4900:04:49.687+2:14.400:25:44.995
471229Brian PIKETWIN FALLS ID USA07 M 45-4900:04:51.770+2:16.500:28:08.472
481235Greg SCHERERNORTH OGDEN UT USA07 M 45-4900:04:54.171+2:18.900:27:44.357
491298Peter KLAASSIDAHO FALLS ID USA07 M 45-4900:04:56.427+2:21.200:32:59.600
501282Robert CONLEEALPINE UT USA07 M 45-4900:04:59.140+2:23.900:26:18.212
511978Richard MATHESON07 M 45-4900:04:59.413+2:24.200:30:52.786
521254Jeffrey KINGKAYSVILLE UT USA07 M 45-4900:05:00.880+2:25.600:27:12.562
531240Tim JONESBOUNTIFUL UT USA07 M 45-4900:05:25.679+2:50.400:29:35.020
541292Jeff LAWRENCEIDAHO FALLS ID USA07 M 45-4900:05:26.105+2:50.900:36:44.462
551261Matthew MITTONBOUNTIFUL UT USA07 M 45-4900:05:26.152+2:50.900:33:58.357
561239Gregg GREEREDEN UT USA07 M 45-4900:05:38.511+3:03.300:29:59.821
571279Daren STEGELMEIERMORGAN UT USA07 M 45-4900:05:44.088+3:08.800:33:33.017
581271Andy BOYCEDRAPER UT USA07 M 45-4900:05:51.925+3:16.700:31:54.979
591300Bart HANSONJACKSON ID USA07 M 45-4900:05:52.666+3:17.400:27:56.029
601226Anthony BARNHARTTWIN FALLS ID USA07 M 45-4900:06:12.100+3:36.800:27:41.285
611294Alan NIELSONLITTLE ELM TX USA07 M 45-4900:06:16.538+3:41.300:35:23.323
621319Daniel SORENSENSALT LAKE CITY UT USA07 M 45-4900:06:35.347+4:00.100:30:36.1
631252Tony CHRISTENSENKAYSVILLE UT USA07 M 45-4900:07:02.392+0:27.000:33:13.293
641313Lynn LANGFORDALPINE UT USA07 M 45-4900:07:08.757+0:33.400:30:50.201
651270Barry JOHNSONALPINE UT USA07 M 45-4900:07:12.520+0:37.100:30:17.831
661286Craig RASBANDFARMINGTON UT USA07 M 45-4900:07:17.535+0:42.100:30:46.693
671278Glen ALLENBURLEY ID USA07 M 45-4900:07:18.302+0:42.900:25:14.075
681311Morgan GOFFSAN DIEGO CA USA07 M 45-4900:08:00.555+1:25.200:33:26.200
691321Brian WOLSEYALPINE UT USA07 M 45-4900:08:17.765+1:42.400:34:00.609
701324Alan DAYLEYALPINE UT USA07 M 45-4900:08:45.342+2:09.900:38:45.299
711290Matthew JOHNSONCENTERVILLE UT USA07 M 45-4900:12:03.808+5:28.400:37:38.004
721322Fred STURGELLHENDERSON CO USA07 M 45-4900:37:36.206+31:00.801:02:58.605
731245Todd GROLLFARMINGTON UT USA07 M 45-4900:54:29.358+47:54.000:54:29.358